Miscellaneous Local Product
Issued by NWS Hastings, NE

Home | Current Version | Previous Version | Text Only | Print | Product List | Glossary On
Versions: 1 2 3 4 5 6 7 8 9 10 11 12 13 14 15 16 17 18 19 20 21 22 23 24 25 26 27 28 29 30 31 32 33 34 35 36 37 38 39 40 41 42 43 44 45 46 47 48 49 50
919
AXUS43 KGID 251802
MISGRI

GID CWA HOURLY WEATHER ROUNDUP
NATIONAL WEATHER SERVICE HASTINGS NE
1200 PM CST SAT FEB 25 2017

NOTE: "FAIR" INDICATES FEW OR NO CLOUDS BELOW 12,000 FEET WITH NO
SIGNIFICANT WEATHER AND/OR OBSTRUCTIONS TO VISIBILITY.

...SOUTH CENTRAL NEBRASKA...

CITY           SKY/WX    TMP DP  RH WIND       PRES   REMARKS
GRAND ISLAND   SUNNY     29  19  66 SW15      30.05F WCI  18
HASTINGS       SUNNY     28  17  63 SW13      30.06F WCI  17
KEARNEY        SUNNY     28  18  64 SW16      30.02F WCI  17
ORD            SUNNY     26  15  63 S14       29.97F WCI  14
YORK           PTSUNNY   25  16  68 S9        30.09F WCI  15
AURORA         MOSUNNY   28  18  68 S9        30.06F WCI  19
LEXINGTON      SUNNY     30  22  70 SW16G22   29.99F WCI  19
HOLDREGE       SUNNY     32  21  64 S16G23    30.01F WCI  21
HEBRON         SUNNY     29  19  64 SW7       30.13F WCI  22

...NEBRASKA PANHANDLE...

CITY           SKY/WX    TMP DP  RH WIND       PRES   REMARKS
CHADRON        SUNNY     26  17  68 W10       29.91F WCI  16
ALLIANCE       SUNNY     20  14  77 W18       29.89F WCI   5
SCOTTSBLUFF    SUNNY     20   9  62 NW9       29.94F WCI   9
SIDNEY         SUNNY     28  14  55 NW16      29.93F WCI  16

...WESTERN AND NORTH CENTRAL NEBRASKA...

CITY           SKY/WX    TMP DP  RH WIND       PRES   REMARKS
VALENTINE      SUNNY     19  10  68 W12       29.90F WCI   7
AINSWORTH      SUNNY     22  15  75 W8        29.91F WCI  12
ONEILL         PTSUNNY   25  16  70 S12       29.96F WCI  14
BROKEN BOW     SUNNY     29  19  66 SW17      29.95F WCI  17
IMPERIAL       SUNNY     30  16  56 W14       29.97F WCI  19
NORTH PLATTE   SUNNY     26  16  65 W10       29.97F WCI  16
MCCOOK         SUNNY     37  25  61 W14G24    29.99F WCI  28

...EASTERN NEBRASKA...

CITY           SKY/WX    TMP DP  RH WIND       PRES   REMARKS
NORFOLK        PTSUNNY   24  12  60 S14       30.04F WCI  12
SO SIOUX CITY  CLOUDY    26  15  63 S8        30.08F WCI  18
TEKAMAH        CLOUDY    24  17  74 SW7       30.11F WCI  16
COLUMBUS       CLOUDY    27  14  59 S7        30.09F WCI  19
ALBION         SUNNY     27  14  60 S10       30.03F WCI  17
OMAHA EPPLEY   PTSUNNY   27  17  66 SE3       30.13F
OFFUTT AFB     MOSUNNY   26  13  57 SW5       30.13F WCI  21
MILLARD        CLOUDY    27  16  63 SW5       30.13F WCI  22
LINCOLN        MOSUNNY   25  16  68 SW7       30.15S WCI  17
NEBRASKA CITY  CLOUDY    26  16  65 SW7       30.15R WCI  18
BEATRICE       SUNNY     30  20  64 S7        30.14F WCI  23
FALLS CITY     MOSUNNY   29  18  63 W7        30.16F WCI  22

...NORTHERN KANSAS...

CITY           SKY/WX    TMP DP  RH WIND       PRES   REMARKS
GOODLAND       SUNNY     38  16  40 W13G23    29.98F WCI  30
HILL CITY      CLOUDY    38  23  55 W15       30.06F WCI  29
PHILLIPSBURG   SUNNY     39  18  41 S15       30.07F WCI  31
SMITH CENTER   SUNNY     34  19  55 SW9       30.10F WCI  26
HAYS           MOSUNNY   38  15  39 SW15      30.10F WCI  29
RUSSELL        SUNNY     39  11  31 SW13      30.10F WCI  31
CONCORDIA      SUNNY     33  19  56 SW10      30.13F WCI  25
SALINA         SUNNY     40  11  30 W13       30.16F WCI  32
TOPEKA         SUNNY     34  15  46 S6        30.19F WCI  29



USA.gov is the U.S. government's official web portal to all federal, state and local government web resources and services.